Regional Weather Roundup
Issued by NWS Cleveland, OH

Home | Current Version | Previous Version | Graphics & Text | Print | Product List | Glossary On
Versions: 1 2 3 4 5 6 7 8 9 10 11 12 13 14 15 16 17 18 19 20 21 22 23 24 25 26 27 28 29 30 31 32 33 34 35 36 37 38 39 40 41 42 43 44 45 46 47 48 49 50
000
ASUS41 KCLE 270100
RWRCLE
OHIO REGIONAL WEATHER ROUNDUP
NATIONAL WEATHER SERVICE WILMINGTON, OH
800 PM EST THU FEB 26 2015

NOTE: "FAIR" INDICATES FEW OR NO CLOUDS BELOW 12,000 FEET WITH NO
SIGNIFICANT WEATHER AND/OR OBSTRUCTIONS TO VISIBILITY.

OHZ001>008-015>018-024>027-034-035-043-044-270200-
   NORTHWEST OHIO

CITY           SKY/WX    TMP DP  RH WIND       PRES   REMARKS
DEFIANCE       MOCLDY    15   3  59 N7        30.28R WCI   5
FINDLAY        MOCLDY    13   7  77 CALM      30.25R
TOLEDO EXPRESS CLOUDY    13   1  59 N8        30.27R WCI   2
TOLEDO EXEC    CLOUDY    14   3  61 NW9       30.28R WCI   2
LIMA           CLOUDY    12   6  77 CALM      30.25R
$$

OHZ009>014-019>023-028>033-038-089-270200-
   NORTHEAST OHIO

CITY           SKY/WX    TMP DP  RH WIND       PRES   REMARKS
CLE-HOPKINS    LGT SNOW  11   5  77 N6        30.27R FOG     WCI   1
CLE-LAKEFRONT  CLOUDY    11   4  73 N10       30.26R WCI  -3
CUY CO. ARPT   CLOUDY    10   7  85 N9        30.23R WCI  -2
LORAIN-ELYRIA  LGT SNOW  10   5  80 N5        30.24R WCI   2
ASHTABULA      CLOUDY     8   2  76 NW3       30.21R
AKRON-CANTON   FLURRIES  10   2  69 N12       30.18R WCI  -5
WOOSTER        NOT AVBL
MANSFIELD      CLOUDY     9   3  77 N5        30.19R WCI   1
YOUNGSTOWN     LGT SNOW   9   3  77 N8        30.17R WCI  -3
$$

OHZ042-051>053-060>062-070>072-077>081-270200-
  SOUTHWEST OHIO

CITY           SKY/WX    TMP DP  RH WIND       PRES   REMARKS
CINC-COVINGTON FLURRIES  16   9  74 N14       30.24R WCI   2
CINC-LUNKEN    CLOUDY    16   9  74 N9        30.29R WCI   4
HAMILTON       CLOUDY    16   8  71 N7        30.29R WCI   6
DAYTON         NOT AVBL
WRIGHT-PAT AFB CLOUDY    14   5  67 N9        30.26R WCI   2
DAYTON GENERAL LGT SNOW  14   7  73 N12       30.24R WCI   0
WILMINGTON     LGT SNOW  13   6  74 N9        30.22R WCI   1
$$

OHZ036-037-039>041-045>050-054>059-063>069-073>076-082>088-270200-
  CENTRAL AND SOUTHEAST OHIO

CITY           SKY/WX    TMP DP  RH WIND       PRES   REMARKS
COLUMBUS       FLURRIES  13   6  74 N14       30.23R WCI  -2
OSU AIRPORT    CLOUDY    12   5  73 N14       30.23R WCI  -3
BOLTON FIELD   NOT AVBL
RICKENBACK AFB CLOUDY    14   7  72 N12       30.23R WCI   0
NEWARK         CLOUDY    15   6  67 N12       30.20R WCI   2
MARION         CLOUDY    10   4  76 N8        30.24R WCI  -2
LANCASTER      CLOUDY    15   8  73 N12       30.21R WCI   2
ZANESVILLE     LGT SNOW  15   6  67 N9        30.19R WCI   3
NEW PHILLY     LGT SNOW  15   6  67 N10       30.20R WCI   2
$$


USA.gov is the U.S. government's official web portal to all federal, state and local government web resources and services.